TimeHST,TemperatureF,Dew PointF,Humidity,Sea Level PressureIn,VisibilityMPH,Wind Direction,Wind SpeedMPH,Gust SpeedMPH,PrecipitationIn,Events,Conditions,WindDirDegrees,DateUTC
12:54 AM,73.0,69.1,87,29.94,10.0,South,9.2,-,0.00,Rain,Light Rain,180,2013-05-06 10:54:00
1:54 AM,73.0,68.0,84,29.91,10.0,South,18.4,-,0.00,,Overcast,190,2013-05-06 11:54:00
2:54 AM,72.0,70.0,93,29.90,10.0,South,9.2,-,N/A,,Overcast,190,2013-05-06 12:54:00
3:54 AM,72.0,70.0,93,29.90,10.0,South,10.4,-,N/A,,Overcast,190,2013-05-06 13:54:00
4:54 AM,73.0,68.0,84,29.91,10.0,South,10.4,-,N/A,,Overcast,190,2013-05-06 14:54:00
5:54 AM,72.0,68.0,87,29.92,7.0,SSW,10.4,-,0.00,,Overcast,200,2013-05-06 15:54:00
6:54 AM,71.1,70.0,96,29.94,2.0,South,10.4,-,0.00,Rain,Light Rain,190,2013-05-06 16:54:00
7:37 AM,71.6,71.6,100,29.93,7.0,SSW,9.2,-,0.01,,Mostly Cloudy,210,2013-05-06 17:37:00
7:54 AM,72.0,71.1,97,29.95,8.0,SSW,9.2,-,0.01,,Mostly Cloudy,210,2013-05-06 17:54:00
8:54 AM,72.0,71.1,97,29.97,10.0,SSW,13.8,-,N/A,,Overcast,200,2013-05-06 18:54:00
9:01 AM,71.6,69.8,94,29.96,9.0,SSW,13.8,-,0.00,Rain,Light Rain,200,2013-05-06 19:01:00
9:16 AM,71.6,71.6,100,29.96,2.5,South,10.4,-,0.01,Rain,Light Rain,190,2013-05-06 19:16:00
9:27 AM,73.4,71.6,94,29.97,2.5,SSW,9.2,-,0.01,,Overcast,200,2013-05-06 19:27:00
9:39 AM,73.4,71.6,94,29.97,2.5,SW,5.8,-,0.01,,Overcast,230,2013-05-06 19:39:00
9:43 AM,73.4,71.6,94,29.97,3.0,SW,4.6,-,0.01,,Overcast,220,2013-05-06 19:43:00
9:49 AM,73.4,71.6,94,29.97,2.0,WSW,5.8,-,0.01,Rain,Light Rain,250,2013-05-06 19:49:00
9:54 AM,73.0,71.1,93,29.99,2.0,WSW,4.6,-,0.01,Rain,Light Rain,240,2013-05-06 19:54:00
10:42 AM,71.6,71.6,100,29.96,4.0,NW,4.6,-,0.02,Rain,Light Rain,320,2013-05-06 20:42:00
10:54 AM,72.0,71.1,97,29.98,5.0,North,4.6,-,0.02,Rain,Light Rain,350,2013-05-06 20:54:00
10:59 AM,71.6,71.6,100,29.96,5.0,North,4.6,-,0.00,Rain,Light Rain,10,2013-05-06 20:59:00
11:54 AM,72.0,71.1,97,29.97,5.0,NNW,5.8,-,0.00,Rain,Light Rain,330,2013-05-06 21:54:00
12:54 PM,75.0,71.1,87,29.95,10.0,NNE,3.5,-,0.01,,Overcast,30,2013-05-06 22:54:00
1:54 PM,75.9,69.1,79,29.94,10.0,North,4.6,-,N/A,,Overcast,350,2013-05-06 23:54:00
2:54 PM,78.1,69.1,74,29.92,10.0,NNW,4.6,-,N/A,,Mostly Cloudy,340,2013-05-07 00:54:00
3:54 PM,79.0,69.1,72,29.90,10.0,North,5.8,-,N/A,,Scattered Clouds,360,2013-05-07 01:54:00
4:54 PM,75.9,70.0,82,29.91,10.0,North,5.8,-,N/A,,Scattered Clouds,360,2013-05-07 02:54:00
5:54 PM,75.9,70.0,82,29.92,10.0,North,4.6,-,N/A,,Mostly Cloudy,10,2013-05-07 03:54:00
6:54 PM,75.9,70.0,82,29.95,10.0,NNW,6.9,-,N/A,,Overcast,340,2013-05-07 04:54:00
7:19 PM,75.2,69.8,83,29.94,10.0,NNW,6.9,-,N/A,,Overcast,330,2013-05-07 05:19:00
7:54 PM,75.0,69.1,82,29.97,10.0,North,9.2,-,N/A,,Overcast,350,2013-05-07 05:54:00
8:28 PM,75.2,68.0,78,29.97,10.0,North,6.9,-,N/A,,Mostly Cloudy,350,2013-05-07 06:28:00
8:54 PM,73.9,69.1,85,29.99,10.0,NNW,5.8,-,N/A,,Partly Cloudy,340,2013-05-07 06:54:00
9:06 PM,73.4,69.8,88,29.97,10.0,North,4.6,-,N/A,,Scattered Clouds,350,2013-05-07 07:06:00
9:54 PM,73.9,70.0,87,30.00,10.0,ESE,3.5,-,N/A,,Scattered Clouds,110,2013-05-07 07:54:00
9:57 PM,73.4,69.8,88,29.99,10.0,ESE,3.5,-,N/A,,Mostly Cloudy,110,2013-05-07 07:57:00
10:54 PM,72.0,69.1,91,30.00,10.0,ESE,4.6,-,N/A,,Partly Cloudy,110,2013-05-07 08:54:00
11:54 PM,71.1,69.1,93,29.99,10.0,Calm,Calm,-,N/A,,Mostly Cloudy,0,2013-05-07 09:54:00